Time,TemperatureF,DewpointF,PressureIn,WindDirection,WindDirectionDegrees,WindSpeedMPH,WindSpeedGustMPH,Humidity,HourlyPrecipIn,Conditions,Clouds,dailyrainin,SoftwareType,DateUTC
2013-03-30 00:02:00,49.0,46.0,30.23,SE,144,0.0,-999.0,90,-99.99,,,-99.99,,2013-03-30 07:02:00,
2013-03-30 00:11:00,49.0,46.0,30.23,SE,144,0.0,-999.0,90,-99.99,,,-99.99,,2013-03-30 07:11:00,
2013-03-30 00:22:00,49.0,46.0,30.22,SE,144,0.0,-999.0,90,-99.99,,,-99.99,,2013-03-30 07:22:00,
2013-03-30 00:32:00,49.0,46.0,30.23,SE,144,0.0,-999.0,90,-99.99,,,-99.99,,2013-03-30 07:32:00,
2013-03-30 00:42:00,49.0,46.0,30.23,SE,144,0.0,-999.0,90,-99.99,,,-99.99,,2013-03-30 07:42:00,
2013-03-30 00:52:00,48.0,45.0,30.23,SE,144,0.0,-999.0,90,-99.99,,,-99.99,,2013-03-30 07:52:00,
2013-03-30 01:01:00,48.0,45.0,30.24,SE,144,0.0,-999.0,91,-99.99,,,-99.99,,2013-03-30 08:01:00,
2013-03-30 01:11:00,48.0,45.0,30.24,SE,144,0.0,-999.0,91,-99.99,,,-99.99,,2013-03-30 08:11:00,
2013-03-30 01:21:00,48.0,45.0,30.24,SE,144,0.0,-999.0,91,-99.99,,,-99.99,,2013-03-30 08:21:00,
2013-03-30 01:32:00,47.0,44.0,30.25,SE,144,0.0,-999.0,90,-99.99,,,-99.99,,2013-03-30 08:32:00,
2013-03-30 01:42:00,47.0,44.0,30.25,SE,144,0.0,-999.0,90,-99.99,,,-99.99,,2013-03-30 08:42:00,
2013-03-30 01:52:00,47.0,45.0,30.25,SE,144,0.0,-999.0,91,-99.99,,,-99.99,,2013-03-30 08:52:00,
2013-03-30 02:01:00,46.0,44.0,30.25,SE,144,0.0,-999.0,91,-99.99,,,-99.99,,2013-03-30 09:01:00,
2013-03-30 02:11:00,46.0,44.0,30.25,SE,144,0.0,-999.0,91,-99.99,,,-99.99,,2013-03-30 09:11:00,
2013-03-30 02:22:00,46.0,44.0,30.26,SE,144,0.0,-999.0,91,-99.99,,,-99.99,,2013-03-30 09:22:00,
2013-03-30 02:33:00,46.0,44.0,30.26,SE,144,0.0,-999.0,91,-99.99,,,-99.99,,2013-03-30 09:33:00,
2013-03-30 02:42:00,46.0,44.0,30.26,SE,144,0.0,-999.0,91,-99.99,,,-99.99,,2013-03-30 09:42:00,
2013-03-30 02:52:00,45.0,43.0,30.27,SE,144,0.0,-999.0,91,-99.99,,,-99.99,,2013-03-30 09:52:00,
2013-03-30 03:02:00,45.0,43.0,30.27,SE,144,0.0,-999.0,92,-99.99,,,-99.99,,2013-03-30 10:02:00,
2013-03-30 03:12:00,45.0,43.0,30.27,SE,144,0.0,-999.0,92,-99.99,,,-99.99,,2013-03-30 10:12:00,
2013-03-30 03:22:00,44.0,42.0,30.27,SE,144,0.0,-999.0,92,-99.99,,,-99.99,,2013-03-30 10:22:00,
2013-03-30 03:32:00,44.0,42.0,30.27,SE,144,0.0,-999.0,92,-99.99,,,-99.99,,2013-03-30 10:32:00,
2013-03-30 03:42:00,44.0,42.0,30.27,SE,144,0.0,-999.0,92,-99.99,,,-99.99,,2013-03-30 10:42:00,
2013-03-30 03:52:00,44.0,42.0,30.27,SE,144,0.0,-999.0,92,-99.99,,,-99.99,,2013-03-30 10:52:00,
2013-03-30 04:03:00,44.0,42.0,30.28,SE,144,0.0,-999.0,91,-99.99,,,-99.99,,2013-03-30 11:03:00,
2013-03-30 04:12:00,44.0,42.0,30.28,SE,144,0.0,-999.0,91,-99.99,,,-99.99,,2013-03-30 11:12:00,
2013-03-30 04:22:00,43.0,40.0,30.28,SE,144,0.0,-999.0,90,-99.99,,,-99.99,,2013-03-30 11:22:00,
2013-03-30 04:32:00,43.0,40.0,30.28,SE,144,0.0,-999.0,90,-99.99,,,-99.99,,2013-03-30 11:32:00,
2013-03-30 04:42:00,43.0,40.0,30.28,SE,144,0.0,-999.0,90,-99.99,,,-99.99,,2013-03-30 11:42:00,
2013-03-30 04:52:00,43.0,40.0,30.29,SE,144,0.0,-999.0,89,-99.99,,,-99.99,,2013-03-30 11:52:00,
2013-03-30 05:02:00,44.0,41.0,30.29,SE,134,0.0,-999.0,89,-99.99,,,-99.99,,2013-03-30 12:02:00,
2013-03-30 05:12:00,44.0,41.0,30.29,SE,134,0.0,-999.0,89,-99.99,,,-99.99,,2013-03-30 12:12:00,
2013-03-30 05:22:00,43.0,40.0,30.29,ENE,58,1.0,-999.0,88,-99.99,,,-99.99,,2013-03-30 12:22:00,
2013-03-30 05:32:00,43.0,40.0,30.29,NNE,30,1.0,-999.0,88,-99.99,,,-99.99,,2013-03-30 12:32:00,
2013-03-30 05:42:00,43.0,40.0,30.29,NNE,30,1.0,-999.0,88,-99.99,,,-99.99,,2013-03-30 12:42:00,
2013-03-30 05:52:00,43.0,39.0,30.30,ENE,60,0.0,-999.0,87,-99.99,,,-99.99,,2013-03-30 12:52:00,
2013-03-30 06:02:00,43.0,39.0,30.30,NE,38,2.0,-999.0,85,-99.99,,,-99.99,,2013-03-30 13:02:00,
2013-03-30 06:11:00,43.0,39.0,30.30,NE,38,2.0,-999.0,85,-99.99,,,-99.99,,2013-03-30 13:11:00,
2013-03-30 06:22:00,43.0,39.0,30.30,ENE,66,1.0,-999.0,85,-99.99,,,-99.99,,2013-03-30 13:22:00,
2013-03-30 06:32:00,43.0,39.0,30.31,NE,34,2.0,-999.0,85,-99.99,,,-99.99,,2013-03-30 13:32:00,
2013-03-30 06:42:00,43.0,39.0,30.31,NE,34,2.0,-999.0,85,-99.99,,,-99.99,,2013-03-30 13:42:00,
2013-03-30 06:52:00,43.0,38.0,30.31,NE,37,1.0,-999.0,84,-99.99,,,-99.99,,2013-03-30 13:52:00,
2013-03-30 07:02:00,43.0,38.0,30.31,ENE,72,2.0,-999.0,84,-99.99,,,-99.99,,2013-03-30 14:02:00,
2013-03-30 07:11:00,43.0,38.0,30.31,ENE,72,2.0,-999.0,84,-99.99,,,-99.99,,2013-03-30 14:11:00,
2013-03-30 07:22:00,43.0,38.0,30.32,NE,40,2.0,-999.0,84,-99.99,,,-99.99,,2013-03-30 14:22:00,
2013-03-30 07:32:00,43.0,38.0,30.32,NE,44,2.0,-999.0,84,-99.99,,,-99.99,,2013-03-30 14:32:00,
2013-03-30 07:42:00,43.0,38.0,30.32,NE,44,2.0,-999.0,84,-99.99,,,-99.99,,2013-03-30 14:42:00,
2013-03-30 07:52:00,43.0,38.0,30.33,East,80,1.0,-999.0,83,-99.99,,,-99.99,,2013-03-30 14:52:00,
2013-03-30 08:02:00,43.0,38.0,30.33,ENE,69,2.0,-999.0,82,-99.99,,,-99.99,,2013-03-30 15:02:00,
2013-03-30 08:12:00,43.0,38.0,30.33,ENE,69,2.0,-999.0,82,-99.99,,,-99.99,,2013-03-30 15:12:00,
2013-03-30 08:22:00,43.0,38.0,30.33,NE,49,1.0,-999.0,81,-99.99,,,-99.99,,2013-03-30 15:22:00,
2013-03-30 08:33:00,44.0,38.0,30.33,ENE,68,0.0,-999.0,80,-99.99,,,-99.99,,2013-03-30 15:33:00,
2013-03-30 08:42:00,44.0,38.0,30.33,ENE,68,0.0,-999.0,80,-99.99,,,-99.99,,2013-03-30 15:42:00,
2013-03-30 08:52:00,44.0,38.0,30.33,ENE,66,0.0,-999.0,80,-99.99,,,-99.99,,2013-03-30 15:52:00,
2013-03-30 09:02:00,44.0,38.0,30.33,NE,39,1.0,-999.0,79,-99.99,,,-99.99,,2013-03-30 16:02:00,
2013-03-30 09:12:00,45.0,39.0,30.33,NE,39,0.0,-999.0,79,-99.99,,,-99.99,,2013-03-30 16:12:00,
2013-03-30 09:22:00,45.0,39.0,30.33,NE,39,0.0,-999.0,79,-99.99,,,-99.99,,2013-03-30 16:22:00,
2013-03-30 09:32:00,45.0,39.0,30.33,NE,39,0.0,-999.0,79,-99.99,,,-99.99,,2013-03-30 16:32:00,
2013-03-30 09:42:00,45.0,39.0,30.33,NE,39,0.0,-999.0,79,-99.99,,,-99.99,,2013-03-30 16:42:00,
2013-03-30 09:52:00,46.0,40.0,30.33,NE,39,0.0,-999.0,79,-99.99,,,-99.99,,2013-03-30 16:52:00,
2013-03-30 10:02:00,46.0,40.0,30.33,NE,39,0.0,-999.0,78,-99.99,,,-99.99,,2013-03-30 17:02:00,
2013-03-30 10:12:00,46.0,40.0,30.33,NE,39,0.0,-999.0,78,-99.99,,,-99.99,,2013-03-30 17:12:00,
2013-03-30 10:22:00,48.0,41.0,30.32,SE,127,1.0,-999.0,77,-99.99,,,-99.99,,2013-03-30 17:22:00,
2013-03-30 10:32:00,51.0,43.0,30.32,SE,127,1.0,-999.0,75,-99.99,,,-99.99,,2013-03-30 17:32:00,
2013-03-30 10:42:00,51.0,43.0,30.32,SE,127,1.0,-999.0,75,-99.99,,,-99.99,,2013-03-30 17:42:00,
2013-03-30 10:52:00,53.0,45.0,30.32,ESE,105,1.0,-999.0,73,-99.99,,,-99.99,,2013-03-30 17:52:00,
2013-03-30 11:02:00,52.0,43.0,30.32,SE,136,1.0,-999.0,71,-99.99,,,-99.99,,2013-03-30 18:02:00,
2013-03-30 11:12:00,53.0,44.0,30.31,WNW,291,1.0,-999.0,71,-99.99,,,-99.99,,2013-03-30 18:12:00,
2013-03-30 11:21:00,53.0,44.0,30.31,WNW,291,1.0,-999.0,71,-99.99,,,-99.99,,2013-03-30 18:21:00,
2013-03-30 11:32:00,54.0,44.0,30.30,West,279,2.0,-999.0,68,-99.99,,,-99.99,,2013-03-30 18:32:00,
2013-03-30 11:42:00,54.0,44.0,30.30,West,279,2.0,-999.0,68,-99.99,,,-99.99,,2013-03-30 18:42:00,
2013-03-30 11:53:00,55.0,45.0,30.29,West,280,2.0,-999.0,70,-99.99,,,-99.99,,2013-03-30 18:53:00,
2013-03-30 12:02:00,56.0,45.0,30.29,SW,224,2.0,-999.0,67,-99.99,,,-99.99,,2013-03-30 19:02:00,
2013-03-30 12:11:00,56.0,45.0,30.29,SW,224,2.0,-999.0,67,-99.99,,,-99.99,,2013-03-30 19:11:00,
2013-03-30 12:21:00,57.0,45.0,30.28,West,277,1.0,-999.0,65,-99.99,,,-99.99,,2013-03-30 19:21:00,
2013-03-30 12:31:00,58.0,46.0,30.27,WSW,252,1.0,-999.0,65,-99.99,,,-99.99,,2013-03-30 19:31:00,
2013-03-30 12:42:00,58.0,46.0,30.27,WSW,252,1.0,-999.0,65,-99.99,,,-99.99,,2013-03-30 19:42:00,
2013-03-30 12:53:00,58.0,45.0,30.26,WSW,258,2.0,-999.0,62,-99.99,,,-99.99,,2013-03-30 19:53:00,
2013-03-30 13:02:00,59.0,46.0,30.25,WSW,256,2.0,-999.0,61,-99.99,,,-99.99,,2013-03-30 20:02:00,
2013-03-30 13:12:00,59.0,46.0,30.25,WSW,256,2.0,-999.0,61,-99.99,,,-99.99,,2013-03-30 20:12:00,
2013-03-30 13:21:00,60.0,46.0,30.24,WSW,251,1.0,-999.0,60,-99.99,,,-99.99,,2013-03-30 20:21:00,
2013-03-30 13:32:00,62.0,43.0,30.23,WSW,250,1.0,-999.0,50,-99.99,,,-99.99,,2013-03-30 20:32:00,
2013-03-30 13:42:00,62.0,43.0,30.23,WSW,250,1.0,-999.0,50,-99.99,,,-99.99,,2013-03-30 20:42:00,
2013-03-30 13:53:00,62.0,43.0,30.23,WSW,250,1.0,-999.0,50,-99.99,,,-99.99,,2013-03-30 20:53:00,
2013-03-30 14:01:00,65.0,39.0,30.22,WSW,248,1.0,-999.0,39,-99.99,,,-99.99,,2013-03-30 21:01:00,
2013-03-30 14:12:00,65.0,39.0,30.22,WSW,248,1.0,-999.0,39,-99.99,,,-99.99,,2013-03-30 21:12:00,
2013-03-30 14:22:00,66.0,40.0,30.21,South,180,1.0,-999.0,39,-99.99,,,-99.99,,2013-03-30 21:22:00,
2013-03-30 14:43:00,66.0,39.0,30.19,South,191,2.0,-999.0,37,-99.99,,,-99.99,,2013-03-30 21:43:00,
2013-03-30 14:53:00,67.0,38.0,30.19,South,191,2.0,-999.0,35,-99.99,,,-99.99,,2013-03-30 21:53:00,
2013-03-30 15:02:00,68.0,39.0,30.18,SW,225,2.0,-999.0,35,-99.99,,,-99.99,,2013-03-30 22:02:00,
2013-03-30 15:12:00,68.0,39.0,30.18,SW,225,2.0,-999.0,35,-99.99,,,-99.99,,2013-03-30 22:12:00,
2013-03-30 15:23:00,67.0,35.0,30.17,NW,304,2.0,-999.0,31,-99.99,,,-99.99,,2013-03-30 22:23:00,
2013-03-30 15:32:00,68.0,35.0,30.16,SW,229,2.0,-999.0,30,-99.99,,,-99.99,,2013-03-30 22:32:00,
2013-03-30 15:42:00,68.0,35.0,30.16,SW,229,2.0,-999.0,30,-99.99,,,-99.99,,2013-03-30 22:42:00,
2013-03-30 15:53:00,68.0,36.0,30.16,WSW,252,1.0,-999.0,31,-99.99,,,-99.99,,2013-03-30 22:53:00,
2013-03-30 16:02:00,70.0,36.0,30.15,WSW,258,2.0,-999.0,29,-99.99,,,-99.99,,2013-03-30 23:02:00,
2013-03-30 16:12:00,70.0,36.0,30.15,WSW,258,2.0,-999.0,29,-99.99,,,-99.99,,2013-03-30 23:12:00,
2013-03-30 16:22:00,68.0,35.0,30.14,SW,224,2.0,-999.0,29,-99.99,,,-99.99,,2013-03-30 23:22:00,
2013-03-30 16:32:00,69.0,35.0,30.14,SW,224,1.0,-999.0,28,-99.99,,,-99.99,,2013-03-30 23:32:00,
2013-03-30 16:42:00,69.0,35.0,30.14,SW,224,1.0,-999.0,28,-99.99,,,-99.99,,2013-03-30 23:42:00,
2013-03-30 16:53:00,69.0,37.0,30.13,SW,224,1.0,-999.0,31,-99.99,,,-99.99,,2013-03-30 23:53:00,
2013-03-30 17:02:00,67.0,35.0,30.12,SW,224,2.0,-999.0,30,-99.99,,,-99.99,,2013-03-31 00:02:00,
2013-03-30 17:11:00,67.0,35.0,30.12,SW,224,2.0,-999.0,30,-99.99,,,-99.99,,2013-03-31 00:11:00,
2013-03-30 17:22:00,67.0,37.0,30.12,SW,224,1.0,-999.0,33,-99.99,,,-99.99,,2013-03-31 00:22:00,
2013-03-30 17:32:00,65.0,38.0,30.12,SW,224,1.0,-999.0,37,-99.99,,,-99.99,,2013-03-31 00:32:00,
2013-03-30 17:42:00,65.0,38.0,30.12,SW,224,1.0,-999.0,37,-99.99,,,-99.99,,2013-03-31 00:42:00,
2013-03-30 17:52:00,66.0,40.0,30.11,SW,224,0.0,-999.0,38,-99.99,,,-99.99,,2013-03-31 00:52:00,
2013-03-30 18:01:00,64.0,38.0,30.11,SW,224,0.0,-999.0,38,-99.99,,,-99.99,,2013-03-31 01:01:00,
2013-03-30 18:22:00,63.0,40.0,30.11,SW,224,0.0,-999.0,43,-99.99,,,-99.99,,2013-03-31 01:22:00,
2013-03-30 18:32:00,62.0,40.0,30.10,SW,224,0.0,-999.0,45,-99.99,,,-99.99,,2013-03-31 01:32:00,
2013-03-30 18:42:00,62.0,40.0,30.10,SW,224,0.0,-999.0,45,-99.99,,,-99.99,,2013-03-31 01:42:00,
2013-03-30 18:52:00,60.0,40.0,30.10,SW,224,0.0,-999.0,48,-99.99,,,-99.99,,2013-03-31 01:52:00,
2013-03-30 19:02:00,59.0,41.0,30.10,SW,224,0.0,-999.0,51,-99.99,,,-99.99,,2013-03-31 02:02:00,
2013-03-30 19:12:00,59.0,41.0,30.10,SW,224,0.0,-999.0,51,-99.99,,,-99.99,,2013-03-31 02:12:00,
2013-03-30 19:21:00,58.0,42.0,30.10,SW,224,0.0,-999.0,55,-99.99,,,-99.99,,2013-03-31 02:21:00,
2013-03-30 19:31:00,57.0,42.0,30.10,SW,224,0.0,-999.0,58,-99.99,,,-99.99,,2013-03-31 02:31:00,
2013-03-30 19:42:00,57.0,42.0,30.10,SW,224,0.0,-999.0,58,-99.99,,,-99.99,,2013-03-31 02:42:00,
2013-03-30 19:52:00,56.0,42.0,30.10,SW,224,0.0,-999.0,60,-99.99,,,-99.99,,2013-03-31 02:52:00,
2013-03-30 20:01:00,55.0,43.0,30.10,SW,224,0.0,-999.0,63,-99.99,,,-99.99,,2013-03-31 03:01:00,
2013-03-30 20:11:00,55.0,43.0,30.10,SW,224,0.0,-999.0,63,-99.99,,,-99.99,,2013-03-31 03:11:00,
2013-03-30 20:21:00,54.0,43.0,30.10,SW,224,0.0,-999.0,65,-99.99,,,-99.99,,2013-03-31 03:21:00,
2013-03-30 20:32:00,53.0,43.0,30.11,SW,224,0.0,-999.0,68,-99.99,,,-99.99,,2013-03-31 03:32:00,
2013-03-30 20:43:00,53.0,43.0,30.11,SW,224,0.0,-999.0,68,-99.99,,,-99.99,,2013-03-31 03:43:00,
2013-03-30 20:53:00,52.0,42.0,30.11,SW,224,0.0,-999.0,69,-99.99,,,-99.99,,2013-03-31 03:53:00,
2013-03-30 21:02:00,51.0,-99.9,30.11,SW,224,0.0,-999.0,71,-99.99,,,-99.99,,2013-03-31 04:02:00,
2013-03-30 21:12:00,51.0,42.0,30.11,SW,224,0.0,-999.0,71,-99.99,,,-99.99,,2013-03-31 04:12:00,
2013-03-30 21:22:00,50.0,41.0,30.12,SW,224,0.0,-999.0,72,-99.99,,,-99.99,,2013-03-31 04:22:00,
2013-03-30 21:32:00,50.0,42.0,30.12,SW,224,0.0,-999.0,73,-99.99,,,-99.99,,2013-03-31 04:32:00,
2013-03-30 21:42:00,50.0,42.0,30.12,SW,224,0.0,-999.0,73,-99.99,,,-99.99,,2013-03-31 04:42:00,
2013-03-30 21:52:00,49.0,41.0,30.12,SW,224,0.0,-999.0,75,-99.99,,,-99.99,,2013-03-31 04:52:00,
2013-03-30 22:02:00,48.0,41.0,30.12,SW,224,0.0,-999.0,76,-99.99,,,-99.99,,2013-03-31 05:02:00,
2013-03-30 22:12:00,48.0,41.0,30.12,SW,224,0.0,-999.0,76,-99.99,,,-99.99,,2013-03-31 05:12:00,
2013-03-30 22:22:00,48.0,41.0,30.12,SW,224,0.0,-999.0,76,-99.99,,,-99.99,,2013-03-31 05:22:00,
2013-03-30 22:32:00,47.0,41.0,30.13,SW,224,0.0,-999.0,78,-99.99,,,-99.99,,2013-03-31 05:32:00,
2013-03-30 22:42:00,47.0,41.0,30.13,SW,224,0.0,-999.0,78,-99.99,,,-99.99,,2013-03-31 05:42:00,
2013-03-30 22:53:00,47.0,41.0,30.13,SW,224,0.0,-999.0,79,-99.99,,,-99.99,,2013-03-31 05:53:00,
2013-03-30 23:01:00,47.0,41.0,30.13,SW,224,0.0,-999.0,79,-99.99,,,-99.99,,2013-03-31 06:01:00,
2013-03-30 23:11:00,47.0,41.0,30.13,SW,224,0.0,-999.0,79,-99.99,,,-99.99,,2013-03-31 06:11:00,
2013-03-30 23:22:00,46.0,41.0,30.13,SW,224,0.0,-999.0,81,-99.99,,,-99.99,,2013-03-31 06:22:00,
2013-03-30 23:32:00,45.0,40.0,30.13,SW,224,0.0,-999.0,81,-99.99,,,-99.99,,2013-03-31 06:32:00,
2013-03-30 23:42:00,45.0,40.0,30.13,SW,224,0.0,-999.0,81,-99.99,,,-99.99,,2013-03-31 06:42:00,
2013-03-30 23:52:00,45.0,40.0,30.13,SW,224,0.0,-999.0,83,-99.99,,,-99.99,,2013-03-31 06:52:00,